FDX455 KIND-KMEM

Flight info

Callsign FDX455
Flight time 1h 7m
Altitude 30000
Route OOM5 PXV BLUZZ5
Aircraft A306/H-SDE3FGHIRWY/LB1

Departure

Time 2026-05-07 01:00
Airport Indianapolis International Airport (KIND)

Arrival

Time 2026-05-07 02:07
Airport Memphis International Airport (KMEM)
Time Latitude Longitude Altitude Speed Heading
2026-05-07 00:24 39.71699 -86.27782 796 ft 0 kts 135°
2026-05-07 00:27 39.71699 -86.27783 796 ft 0 kts 135°
2026-05-07 00:32 39.71699 -86.27782 796 ft 9 kts 135°
2026-05-07 00:32 39.71699 -86.27783 796 ft 0 kts 135°
2026-05-07 00:33 39.71699 -86.27782 796 ft 0 kts 135°
2026-05-07 00:35 39.71699 -86.27783 796 ft 0 kts 135°
2026-05-07 00:37 39.71699 -86.27782 796 ft 9 kts 135°
2026-05-07 00:40 39.71699 -86.27783 796 ft 0 kts 135°
2026-05-07 00:51 39.71714 -86.27801 796 ft 3 kts 139°
2026-05-07 00:51 39.71732 -86.27816 796 ft 3 kts 172°
2026-05-07 00:51 39.71753 -86.27813 796 ft 4 kts 213°
2026-05-07 00:52 39.71761 -86.27806 796 ft 2 kts 225°
2026-05-07 00:54 39.71760 -86.27806 796 ft 0 kts 225°
2026-05-07 00:55 39.71741 -86.27831 796 ft 8 kts 225°
2026-05-07 00:55 39.71700 -86.27884 795 ft 9 kts 224°
2026-05-07 00:55 39.71670 -86.27952 794 ft 8 kts 266°
2026-05-07 00:55 39.71696 -86.27984 794 ft 6 kts 345°
2026-05-07 00:56 39.71732 -86.27966 795 ft 7 kts 37°
2026-05-07 00:56 39.71758 -86.27935 795 ft 4 kts 44°
2026-05-07 00:56 39.71790 -86.27894 796 ft 6 kts 45°
2026-05-07 00:56 39.71826 -86.27849 797 ft 8 kts 39°
2026-05-07 00:57 39.71868 -86.27835 797 ft 5 kts 346°
2026-05-07 00:57 39.71894 -86.27857 797 ft 4 kts 314°
2026-05-07 00:57 39.71905 -86.27873 797 ft 0 kts 313°
2026-05-07 00:58 39.71905 -86.27874 797 ft 2 kts 313°
2026-05-07 00:58 39.71943 -86.27937 796 ft 12 kts 293°
2026-05-07 00:58 39.71919 -86.28024 795 ft 12 kts 227°
2026-05-07 00:59 39.71198 -86.28989 796 ft 133 kts 225°
2026-05-07 00:59 39.70431 -86.29984 914 ft 174 kts 225°
2026-05-07 00:59 39.69489 -86.31117 1364 ft 194 kts 224°
2026-05-07 01:00 39.68415 -86.32379 1876 ft 219 kts 224°
2026-05-07 01:00 39.67273 -86.33695 2785 ft 219 kts 224°
2026-05-07 01:00 39.66085 -86.35034 3286 ft 236 kts 223°
2026-05-07 01:00 39.64862 -86.36599 3680 ft 256 kts 230°
2026-05-07 01:01 39.63666 -86.38345 4457 ft 263 kts 230°
2026-05-07 01:01 39.62377 -86.40158 4949 ft 284 kts 229°
2026-05-07 01:01 39.60967 -86.42064 5150 ft 308 kts 227°
2026-05-07 01:01 39.59417 -86.44101 5504 ft 325 kts 227°
2026-05-07 01:02 39.57783 -86.46224 5863 ft 341 kts 227°
2026-05-07 01:02 39.56060 -86.48432 6225 ft 355 kts 225°
2026-05-07 01:02 39.53969 -86.50251 6567 ft 371 kts 207°
2026-05-07 01:02 39.51565 -86.51147 6838 ft 346 kts 194°
2026-05-07 01:03 39.49299 -86.51662 7124 ft 315 kts 193°
2026-05-07 01:03 39.47233 -86.52097 7413 ft 287 kts 193°
2026-05-07 01:03 39.45300 -86.52483 7727 ft 279 kts 193°
2026-05-07 01:03 39.43376 -86.52858 8058 ft 280 kts 193°
2026-05-07 01:04 39.41443 -86.53225 8381 ft 281 kts 193°
2026-05-07 01:04 39.39542 -86.53651 8786 ft 281 kts 197°
2026-05-07 01:04 39.37628 -86.54212 9593 ft 283 kts 199°
2026-05-07 01:04 39.35763 -86.54967 10444 ft 281 kts 210°
2026-05-07 01:05 39.34010 -86.56191 10851 ft 294 kts 217°
2026-05-07 01:05 39.32246 -86.57652 11202 ft 309 kts 219°
2026-05-07 01:05 39.30410 -86.59230 11523 ft 325 kts 220°
2026-05-07 01:05 39.28495 -86.60888 11842 ft 338 kts 220°
2026-05-07 01:06 39.26522 -86.62597 12326 ft 344 kts 220°
2026-05-07 01:06 39.24530 -86.64319 13036 ft 344 kts 220°
2026-05-07 01:06 39.22577 -86.66006 13834 ft 341 kts 221°
2026-05-07 01:06 39.20609 -86.67710 14479 ft 341 kts 221°
2026-05-07 01:07 39.18629 -86.69427 15041 ft 344 kts 221°
2026-05-07 01:07 39.16639 -86.71154 15615 ft 346 kts 221°
2026-05-07 01:07 39.14637 -86.72889 16224 ft 348 kts 222°
2026-05-07 01:07 39.12626 -86.74630 16834 ft 349 kts 222°
2026-05-07 01:08 39.10610 -86.76376 17402 ft 350 kts 222°
2026-05-07 01:08 39.08582 -86.78130 17961 ft 352 kts 222°
2026-05-07 01:08 39.06544 -86.79890 18494 ft 353 kts 222°
2026-05-07 01:08 39.04504 -86.81650 19002 ft 353 kts 222°
2026-05-07 01:09 39.02466 -86.83409 19478 ft 354 kts 222°
2026-05-07 01:09 39.00447 -86.85149 19957 ft 354 kts 222°
2026-05-07 01:09 38.98402 -86.86910 20424 ft 354 kts 223°
2026-05-07 01:09 38.96350 -86.88678 20870 ft 355 kts 223°
2026-05-07 01:10 38.94300 -86.90442 21316 ft 356 kts 223°
2026-05-07 01:10 38.92241 -86.92212 21778 ft 357 kts 223°
2026-05-07 01:10 38.90173 -86.93989 22195 ft 358 kts 223°
2026-05-07 01:10 38.88106 -86.95764 22644 ft 358 kts 223°
2026-05-07 01:11 38.86028 -86.97548 23051 ft 359 kts 223°
2026-05-07 01:11 38.83974 -86.99309 23392 ft 360 kts 223°
2026-05-07 01:11 38.81888 -87.01096 23760 ft 361 kts 223°
2026-05-07 01:11 38.79795 -87.02889 24046 ft 363 kts 223°
2026-05-07 01:12 38.77688 -87.04692 24329 ft 365 kts 223°
2026-05-07 01:12 38.75572 -87.06502 24619 ft 366 kts 223°
2026-05-07 01:12 38.73450 -87.08315 24882 ft 368 kts 223°
2026-05-07 01:12 38.71319 -87.10134 25145 ft 369 kts 223°
2026-05-07 01:13 38.69181 -87.11960 25380 ft 371 kts 223°
2026-05-07 01:13 38.67058 -87.13769 25643 ft 371 kts 223°
2026-05-07 01:13 38.64904 -87.15603 25888 ft 373 kts 223°
2026-05-07 01:13 38.62743 -87.17442 26130 ft 374 kts 223°
2026-05-07 01:14 38.60571 -87.19290 26276 ft 376 kts 223°
2026-05-07 01:14 38.58385 -87.21149 26479 ft 378 kts 223°
2026-05-07 01:14 38.56193 -87.23011 26708 ft 379 kts 223°
2026-05-07 01:14 38.53993 -87.24877 26924 ft 380 kts 223°
2026-05-07 01:15 38.51788 -87.26747 27227 ft 380 kts 223°
2026-05-07 01:15 38.49591 -87.28605 27584 ft 378 kts 223°
2026-05-07 01:15 38.47436 -87.30428 27926 ft 376 kts 224°
2026-05-07 01:15 38.45262 -87.32266 28252 ft 375 kts 224°
2026-05-07 01:16 38.43091 -87.34102 28617 ft 373 kts 224°
2026-05-07 01:16 38.40934 -87.35923 28990 ft 371 kts 224°
2026-05-07 01:16 38.38788 -87.37735 29333 ft 369 kts 224°
2026-05-07 01:16 38.36651 -87.39538 29646 ft 368 kts 224°
2026-05-07 01:17 38.34517 -87.41339 29959 ft 368 kts 224°
2026-05-07 01:17 38.32381 -87.43140 30062 ft 368 kts 224°
2026-05-07 01:17 38.30277 -87.44911 30059 ft 367 kts 224°
2026-05-07 01:18 38.26009 -87.48503 30057 ft 368 kts 224°
2026-05-07 01:18 38.21742 -87.52087 30057 ft 368 kts 224°
2026-05-07 01:19 38.17469 -87.55671 30056 ft 368 kts 224°
2026-05-07 01:19 38.13190 -87.59256 30055 ft 370 kts 224°
2026-05-07 01:20 38.08922 -87.62825 30055 ft 370 kts 224°
2026-05-07 01:20 38.04615 -87.66421 30057 ft 370 kts 224°
2026-05-07 01:21 38.00307 -87.70012 30056 ft 371 kts 224°
2026-05-07 01:21 37.96000 -87.73598 30056 ft 370 kts 224°
2026-05-07 01:22 37.91577 -87.76999 30049 ft 378 kts 219°
2026-05-07 01:22 37.86854 -87.79926 30054 ft 381 kts 217°
2026-05-07 01:23 37.82073 -87.82844 30055 ft 381 kts 217°
2026-05-07 01:23 37.77298 -87.85762 30055 ft 381 kts 218°
2026-05-07 01:24 37.72521 -87.88681 30054 ft 381 kts 218°
2026-05-07 01:24 37.67772 -87.91580 30042 ft 382 kts 217°
2026-05-07 01:25 37.62961 -87.94516 30052 ft 385 kts 217°
2026-05-07 01:25 37.58131 -87.97454 30048 ft 386 kts 217°
2026-05-07 01:26 37.53301 -88.00389 30046 ft 386 kts 217°
2026-05-07 01:26 37.48468 -88.03323 30047 ft 386 kts 217°
2026-05-07 01:27 37.43664 -88.06236 30074 ft 386 kts 217°
2026-05-07 01:27 37.38809 -88.09173 30095 ft 388 kts 217°
2026-05-07 01:28 37.33951 -88.12105 30070 ft 386 kts 217°
2026-05-07 01:28 37.29107 -88.15029 30037 ft 386 kts 217°
2026-05-07 01:29 37.24267 -88.17948 30040 ft 386 kts 217°
2026-05-07 01:29 37.19418 -88.20867 30028 ft 387 kts 217°
2026-05-07 01:30 37.14583 -88.23772 30032 ft 388 kts 217°
2026-05-07 01:30 37.09708 -88.26696 30028 ft 388 kts 217°
2026-05-07 01:31 37.04832 -88.29616 30028 ft 388 kts 217°
2026-05-07 01:31 36.99954 -88.32533 30033 ft 388 kts 217°
2026-05-07 01:32 36.95084 -88.35442 30040 ft 388 kts 217°
2026-05-07 01:32 36.90254 -88.38323 30055 ft 387 kts 217°
2026-05-07 01:33 36.85394 -88.41219 30060 ft 387 kts 217°
2026-05-07 01:33 36.80533 -88.44110 30065 ft 387 kts 217°
2026-05-07 01:34 36.76493 -88.46510 30065 ft 387 kts 217°
2026-05-07 01:34 36.70839 -88.49866 30071 ft 387 kts 216°
2026-05-07 01:35 36.65976 -88.52745 30066 ft 387 kts 216°
2026-05-07 01:35 36.61112 -88.55622 30064 ft 387 kts 216°
2026-05-07 01:36 36.57065 -88.58013 30063 ft 387 kts 216°
2026-05-07 01:36 36.52201 -88.60883 30052 ft 387 kts 216°
2026-05-07 01:37 36.47339 -88.63748 30047 ft 386 kts 214°
2026-05-07 01:37 36.42503 -88.66591 30054 ft 384 kts 214°
2026-05-07 01:38 36.37673 -88.69430 30049 ft 384 kts 214°
2026-05-07 01:38 36.32877 -88.72244 30052 ft 384 kts 214°
2026-05-07 01:39 36.28046 -88.75074 29985 ft 379 kts 214°
2026-05-07 01:39 36.25697 -88.76438 29734 ft 366 kts 215°
2026-05-07 01:39 36.23421 -88.77763 29255 ft 358 kts 215°
2026-05-07 01:39 36.21167 -88.79085 28915 ft 361 kts 215°
2026-05-07 01:40 36.18906 -88.80416 28534 ft 366 kts 215°
2026-05-07 01:40 36.16596 -88.81771 28138 ft 369 kts 215°
2026-05-07 01:40 36.14266 -88.83132 27731 ft 372 kts 214°
2026-05-07 01:40 36.11920 -88.84501 27340 ft 374 kts 214°
2026-05-07 01:41 36.09565 -88.85871 26944 ft 374 kts 214°
2026-05-07 01:41 36.07220 -88.87233 26561 ft 372 kts 214°
2026-05-07 01:41 36.04878 -88.88594 26172 ft 371 kts 214°
2026-05-07 01:41 36.02544 -88.89951 25782 ft 370 kts 214°
2026-05-07 01:42 36.00217 -88.91302 25387 ft 369 kts 214°
2026-05-07 01:42 35.97900 -88.92648 24996 ft 368 kts 214°
2026-05-07 01:42 35.95587 -88.93990 24620 ft 367 kts 214°
2026-05-07 01:42 35.93310 -88.95311 24271 ft 369 kts 214°
2026-05-07 01:43 35.90951 -88.96688 24095 ft 381 kts 214°
2026-05-07 01:43 35.88531 -88.98096 24064 ft 388 kts 214°
2026-05-07 01:43 35.86082 -88.99512 24050 ft 390 kts 214°
2026-05-07 01:43 35.83615 -89.00936 23613 ft 391 kts 213°
2026-05-07 01:44 35.81154 -89.02354 23165 ft 389 kts 213°
2026-05-07 01:44 35.78710 -89.03762 23058 ft 387 kts 213°
2026-05-07 01:44 35.76274 -89.05167 23050 ft 386 kts 213°
2026-05-07 01:44 35.73890 -89.06657 23033 ft 380 kts 219°
2026-05-07 01:45 35.71826 -89.08612 22885 ft 370 kts 229°
2026-05-07 01:45 35.70043 -89.10809 22027 ft 367 kts 231°
2026-05-07 01:45 35.68291 -89.13104 20944 ft 369 kts 232°
2026-05-07 01:45 35.66556 -89.15382 19720 ft 361 kts 232°
2026-05-07 01:46 35.64843 -89.17616 18633 ft 354 kts 231°
2026-05-07 01:46 35.63205 -89.19733 18308 ft 328 kts 231°
2026-05-07 01:46 35.61688 -89.21686 18027 ft 304 kts 232°
2026-05-07 01:46 35.60266 -89.23520 17756 ft 293 kts 232°
2026-05-07 01:47 35.58898 -89.25283 17593 ft 278 kts 232°
2026-05-07 01:47 35.57581 -89.26979 17392 ft 272 kts 232°
2026-05-07 01:47 35.56270 -89.28670 17110 ft 274 kts 232°
2026-05-07 01:47 35.54953 -89.30367 16803 ft 275 kts 232°
2026-05-07 01:48 35.53651 -89.32040 16537 ft 275 kts 231°
2026-05-07 01:48 35.52331 -89.33732 16250 ft 274 kts 231°
2026-05-07 01:48 35.51005 -89.35434 16053 ft 282 kts 231°
2026-05-07 01:48 35.49623 -89.37212 15990 ft 292 kts 231°
2026-05-07 01:49 35.48216 -89.39016 16023 ft 292 kts 231°
2026-05-07 01:49 35.46812 -89.40809 15679 ft 291 kts 231°
2026-05-07 01:49 35.45408 -89.42606 15027 ft 294 kts 231°
2026-05-07 01:49 35.43990 -89.44420 14475 ft 294 kts 231°
2026-05-07 01:50 35.42583 -89.46216 14081 ft 289 kts 231°
2026-05-07 01:50 35.41222 -89.47952 13757 ft 284 kts 231°
2026-05-07 01:50 35.39868 -89.49679 13444 ft 278 kts 231°
2026-05-07 01:50 35.38545 -89.51366 13152 ft 272 kts 231°
2026-05-07 01:51 35.37246 -89.53024 12867 ft 268 kts 231°
2026-05-07 01:51 35.35952 -89.54678 12579 ft 270 kts 231°
2026-05-07 01:51 35.34653 -89.56337 12269 ft 270 kts 231°
2026-05-07 01:51 35.33342 -89.58011 12047 ft 278 kts 231°
2026-05-07 01:52 35.31979 -89.59753 11989 ft 284 kts 230°
2026-05-07 01:52 35.30645 -89.61443 11987 ft 267 kts 230°
2026-05-07 01:52 35.29384 -89.63038 12002 ft 257 kts 231°
2026-05-07 01:52 35.28168 -89.64586 12010 ft 256 kts 231°
2026-05-07 01:53 35.26935 -89.66157 12010 ft 256 kts 231°
2026-05-07 01:53 35.25698 -89.67731 12014 ft 257 kts 231°
2026-05-07 01:53 35.24462 -89.69303 11808 ft 256 kts 230°
2026-05-07 01:53 35.23218 -89.70883 11305 ft 259 kts 230°
2026-05-07 01:54 35.21968 -89.72469 11054 ft 258 kts 230°
2026-05-07 01:54 35.20720 -89.74051 11008 ft 259 kts 230°
2026-05-07 01:54 35.19472 -89.75633 11007 ft 259 kts 230°
2026-05-07 01:54 35.18239 -89.77192 10998 ft 248 kts 230°
2026-05-07 01:55 35.17074 -89.78662 10999 ft 234 kts 230°
2026-05-07 01:55 35.15977 -89.80045 11001 ft 221 kts 231°
2026-05-07 01:55 35.14917 -89.81388 11004 ft 218 kts 231°
2026-05-07 01:55 35.13880 -89.82704 10943 ft 216 kts 231°
2026-05-07 01:56 35.12842 -89.84019 10671 ft 216 kts 231°
2026-05-07 01:56 35.11785 -89.85336 10329 ft 219 kts 227°
2026-05-07 01:56 35.10483 -89.86354 10057 ft 229 kts 206°
2026-05-07 01:56 35.08879 -89.86649 9990 ft 237 kts 191°
2026-05-07 01:57 35.07237 -89.86650 9689 ft 235 kts 188°
2026-05-07 01:57 35.05597 -89.86610 9164 ft 237 kts 187°
2026-05-07 01:57 35.03946 -89.86573 8649 ft 239 kts 187°
2026-05-07 01:57 35.02271 -89.86543 8040 ft 243 kts 186°
2026-05-07 01:58 35.00602 -89.86516 7457 ft 242 kts 186°
2026-05-07 01:58 34.98936 -89.86489 6887 ft 240 kts 185°
2026-05-07 01:58 34.97253 -89.86467 6322 ft 243 kts 184°
2026-05-07 01:58 34.95550 -89.86445 5745 ft 245 kts 183°
2026-05-07 01:59 34.93847 -89.86424 5190 ft 246 kts 182°
2026-05-07 01:59 34.92131 -89.86403 4610 ft 248 kts 182°
2026-05-07 01:59 34.90399 -89.86382 4005 ft 250 kts 180°
2026-05-07 01:59 34.88656 -89.86361 3425 ft 251 kts 178°
2026-05-07 02:00 34.86960 -89.86341 3052 ft 240 kts 178°
2026-05-07 02:00 34.85346 -89.86334 2963 ft 224 kts 181°
2026-05-07 02:00 34.83901 -89.86903 2971 ft 219 kts 215°
2026-05-07 02:00 34.82996 -89.88310 2971 ft 211 kts 251°
2026-05-07 02:01 34.82717 -89.90017 2983 ft 208 kts 266°
2026-05-07 02:01 34.82593 -89.91773 2988 ft 209 kts 268°
2026-05-07 02:01 34.82483 -89.93532 2977 ft 208 kts 268°
2026-05-07 02:01 34.82556 -89.95267 2968 ft 204 kts 292°
2026-05-07 02:02 34.83346 -89.96640 2982 ft 197 kts 322°
2026-05-07 02:02 34.84430 -89.97648 3001 ft 196 kts 331°
2026-05-07 02:02 34.85672 -89.98248 2989 ft 188 kts 352°
2026-05-07 02:02 34.86946 -89.98376 2988 ft 182 kts
2026-05-07 02:03 34.88210 -89.98389 2993 ft 181 kts
2026-05-07 02:03 34.89434 -89.98411 2954 ft 172 kts
2026-05-07 02:03 34.90619 -89.98436 2721 ft 165 kts
2026-05-07 02:03 34.91731 -89.98461 2475 ft 158 kts
2026-05-07 02:04 34.92786 -89.98483 2258 ft 145 kts
2026-05-07 02:04 34.93752 -89.98504 2077 ft 134 kts
2026-05-07 02:04 34.94670 -89.98523 1918 ft 131 kts
2026-05-07 02:04 34.95576 -89.98542 1730 ft 130 kts
2026-05-07 02:05 34.96489 -89.98561 1544 ft 133 kts
2026-05-07 02:05 34.97426 -89.98582 1361 ft 135 kts
2026-05-07 02:05 34.98371 -89.98603 1168 ft 137 kts
2026-05-07 02:05 34.99329 -89.98623 983 ft 138 kts
2026-05-07 02:06 35.00280 -89.98644 792 ft 140 kts
2026-05-07 02:06 35.01226 -89.98666 596 ft 130 kts 359°
2026-05-07 02:06 35.02111 -89.98697 425 ft 122 kts
2026-05-07 02:06 35.02921 -89.98708 333 ft 108 kts
2026-05-07 02:07 35.03477 -89.98713 333 ft 43 kts 359°
2026-05-07 02:07 35.03998 -89.98726 331 ft 38 kts 358°
2026-05-07 02:07 35.04193 -89.98673 331 ft 7 kts 63°
2026-05-07 02:08 35.04193 -89.98625 332 ft 5 kts 74°
2026-05-07 02:08 35.04216 -89.98602 333 ft 3 kts 25°
2026-05-07 02:08 35.04236 -89.98596 336 ft 2 kts
2026-05-07 02:08 35.04248 -89.98596 333 ft 0 kts 359°
2026-05-07 02:09 35.04275 -89.98596 333 ft 5 kts 359°
2026-05-07 02:09 35.04345 -89.98598 333 ft 13 kts 359°
2026-05-07 02:09 35.04430 -89.98600 334 ft 14 kts 359°
2026-05-07 02:10 35.04526 -89.98601 334 ft 13 kts 359°
2026-05-07 02:10 35.04612 -89.98604 334 ft 12 kts 358°
2026-05-07 02:10 35.04696 -89.98606 334 ft 15 kts 359°
2026-05-07 02:10 35.04805 -89.98609 335 ft 15 kts 359°
2026-05-07 02:11 35.04904 -89.98609 335 ft 14 kts
2026-05-07 02:11 35.04994 -89.98588 334 ft 13 kts 20°
2026-05-07 02:11 35.05074 -89.98543 333 ft 12 kts 26°
2026-05-07 02:11 35.05149 -89.98515 334 ft 11 kts
2026-05-07 02:12 35.05235 -89.98511 335 ft 13 kts
2026-05-07 02:12 35.05322 -89.98511 334 ft 12 kts 360°
2026-05-07 02:12 35.05403 -89.98512 333 ft 11 kts
2026-05-07 02:12 35.05478 -89.98510 332 ft 11 kts
2026-05-07 02:13 35.05581 -89.98509 332 ft 16 kts
2026-05-07 02:13 35.05685 -89.98509 334 ft 15 kts 360°
2026-05-07 02:13 35.05785 -89.98508 333 ft 14 kts
2026-05-07 02:13 35.05882 -89.98507 333 ft 13 kts 356°
2026-05-07 02:14 35.05966 -89.98515 333 ft 11 kts 355°
2026-05-07 02:14 35.06042 -89.98524 331 ft 12 kts 352°
2026-05-07 02:14 35.06124 -89.98535 332 ft 11 kts 356°
2026-05-07 02:14 35.06170 -89.98533 334 ft 2 kts
2026-05-07 02:15 35.06195 -89.98540 334 ft 3 kts 329°
2026-05-07 02:15 35.06205 -89.98556 333 ft 2 kts 300°
2026-05-07 02:15 35.06209 -89.98576 332 ft 5 kts 283°
2026-05-07 02:15 35.06211 -89.98607 332 ft 0 kts 271°